Volver al catálogo

COSMOS 1275 DEB

ActivoPO
NORAD 42152·DEBRIS·🇷🇺 Russia

Lanzado Jun 4, 1981 desde Plesetsk Cosmodrome

Loading…

Próximos Pases (próximas 24 horas)

TLE

ObsoletoSource: Space-Track

Época: Aug 25, 2026, 02:56 UTC

1 42152U 81053RQ  26237.12254326  .00001372  00000-0  85086-3 0  9999
2 42152  83.1202  23.1692 0055626 342.2573  17.6655 14.03711881650549

Sigue COSMOS 1275 DEB en tiempo real con AllMySat

Download on the App Store